Tampa, FL

10:59 AM EST on December 09, 2016 (GMT -0500)
MacDill Air Force Base

Weather History for KMCF - April, 2014

Change the Weather History Date:

Wednesday, April 23, 2014

  Actual Average Record
Temperature  
Mean Temperature 72 °F -  
Max Temperature 80 °F 80 °F 89 °F (1999)
Min Temperature 63 °F 63 °F 55 °F (2007)
Cooling Degree Days 6    
Growing Degree Days 22 (Base 50)    
Moisture  
Dew Point 66 °F    
Average Humidity 80    
Maximum Humidity 99    
Minimum Humidity 60    
Precipitation  
Precipitation 0.00 in - - ()
Sea Level Pressure  
Sea Level Pressure 29.95 in    
Wind  
Wind Speed 6 mph (NNW)    
Max Wind Speed 10 mph    
Max Gust Speed -    
Visibility 10 miles    
Events      
Averages and records for this station are not official NWS values.
T = Trace of Precipitation, MM = Missing Value Source: NWS Daily Summary

Daily Weather History Graph

Daily Weather History Graph

Search for Another Location

Airport or City:

Trip Planner

Search our weather history database for the weather conditions in past years. The results will help you decide how hot, cold, wet, or windy it might be!

Date:

Astronomy

Apr. 23, 2014 Rise Set
Actual Time 6:57 AM EDT 7:59 PM EDT
Civil Twilight 6:33 AM EDT 8:24 PM EDT
Nautical Twilight 6:04 AM EDT 8:52 PM EDT
Astronomical Twilight 5:34 AM EDT 9:22 PM EDT
Moon 2:56 AM EDT (4/23) 2:36 PM EDT (4/23)
Length of Visible Light 13h 50m
Length of Day
13h 02m
Waning Crescent, 35% of the Moon is Illuminated
Apr 23
Waning Crescent
Apr 29
New
May 6
First Quarter
May 14
Full
May 21
Last Quarter

Hourly Weather History & Observations

Time (EDT) Temp. Heat Index Dew Point Humidity Pressure Visibility Wind Dir Wind Speed Gust Speed Precip Events Conditions
12:58 AM 63.7 °F - 62.8 °F 97% 29.94 in 10.0 mi NNW 4.6 mph - N/A   Clear
1:58 AM 64.4 °F - 64.2 °F 99% 29.92 in 10.0 mi WNW 3.5 mph - N/A   Scattered Clouds
2:58 AM 65.7 °F - 65.1 °F 98% 29.91 in 10.0 mi WNW 4.6 mph - N/A   Clear
3:58 AM 65.3 °F - 64.9 °F 99% 29.91 in 10.0 mi NW 4.6 mph - N/A   Clear
4:58 AM 65.1 °F - 64.8 °F 99% 29.91 in 10.0 mi WNW 6.9 mph - N/A   Partly Cloudy
5:58 AM 65.3 °F - 64.9 °F 99% 29.92 in 10.0 mi NW 4.6 mph - N/A   Clear
6:58 AM 64.4 °F - 64.0 °F 99% 29.94 in 10.0 mi NNW 4.6 mph - N/A   Clear
7:58 AM 65.8 °F - 65.7 °F 99% 29.96 in 10.0 mi NW 4.6 mph - N/A   Clear
8:58 AM 72.9 °F - 66.2 °F 80% 29.97 in 10.0 mi NNW 6.9 mph - N/A   Clear
9:53 AM 75.2 °F - 66.2 °F 73% 29.97 in 10.0 mi North 5.8 mph - N/A   Mostly Cloudy
9:58 AM 74.5 °F - 66.6 °F 76% 29.98 in 10.0 mi NNW 4.6 mph - N/A   Mostly Cloudy
10:08 AM 73.4 °F - 66.2 °F 78% 29.97 in 10.0 mi NW 6.9 mph - N/A   Scattered Clouds
10:53 AM 77.0 °F - 66.2 °F 69% 29.98 in 10.0 mi NNW 6.9 mph - N/A   Mostly Cloudy
10:58 AM 77.2 °F - 66.0 °F 68% 29.99 in 10.0 mi North 5.8 mph - N/A   Mostly Cloudy
11:03 AM 77.0 °F - 66.2 °F 69% 29.98 in 10.0 mi North 6.9 mph - N/A   Scattered Clouds
11:08 AM 77.0 °F - 66.2 °F 69% 29.98 in 10.0 mi North 6.9 mph - N/A   Mostly Cloudy
11:18 AM 77.0 °F - 66.2 °F 69% 29.98 in 10.0 mi NNW 8.1 mph - N/A   Scattered Clouds
11:58 AM 78.3 °F - 66.2 °F 66% 29.99 in 10.0 mi North 9.2 mph - N/A   Partly Cloudy
12:58 PM 78.6 °F - 65.8 °F 65% 29.97 in 10.0 mi Variable 6.9 mph - N/A   Scattered Clouds
1:58 PM 80.1 °F 81.9 °F 65.1 °F 60% 29.96 in 10.0 mi North 6.9 mph - N/A   Clear
2:58 PM 80.1 °F 82.3 °F 66.7 °F 64% 29.94 in 10.0 mi North 10.4 mph - N/A   Clear
3:58 PM 79.0 °F - 65.3 °F 63% 29.92 in 10.0 mi NNW 8.1 mph - N/A   Clear
4:58 PM 79.0 °F - 64.9 °F 62% 29.91 in 10.0 mi Variable 6.9 mph - N/A   Clear
5:58 PM 77.4 °F - 64.6 °F 65% 29.91 in 10.0 mi NW 8.1 mph - N/A   Clear
6:58 PM 74.8 °F - 65.1 °F 72% 29.92 in 10.0 mi NNW 8.1 mph - N/A   Clear
7:58 PM 72.1 °F - 64.8 °F 78% 29.93 in 10.0 mi NW 8.1 mph - N/A   Clear
8:58 PM 69.6 °F - 65.7 °F 87% 29.96 in 10.0 mi WNW 9.2 mph - N/A   Clear
9:58 PM 68.4 °F - 66.2 °F 93% 29.97 in 10.0 mi WNW 6.9 mph - N/A   Clear
10:58 PM 67.3 °F - 66.4 °F 97% 29.98 in 10.0 mi WNW 6.9 mph - N/A   Clear
11:58 PM 67.1 °F - 66.4 °F 98% 29.98 in 10.0 mi NW 5.8 mph - N/A   Clear